Weather in Tarmakul

Russia / Novosibirsk Oblast     55°18′26″N   76°58′29″E
temp.,
°C
wind,
m/s
gust,
m/s
humid.,
%
clouds,
%
prec.,
mm/h
press.,
hPa
HPBL,
m
3 march, wed
wed301:00−16sw239791 0.1 101664
04:00−18ssw349776 0.1 101563
07:00−20ssw349980 0.1 101652
10:00−19ssw369789 0.1 1015142
13:00−14ssw589476 0.1 1016285
16:00−12ssw61092100 0.0 1015445
19:00−14s61392100 0.0 1015477
22:00−13ssw71393100 0.1 1015495
4 march, thu
thu401:00−11ssw71393100 0.4 1014517
04:00−8ssw71493100 0.5 1012580
07:00−7ssw71392100 0.7 1011520
10:00−4ssw81493100 0.1 1010656
13:00−2ssw91493100 0.6 1010819
16:00−2ssw91493100 0.3 1008790
19:00−2ssw91594100 0.8 1007935
22:00−2ssw91694100 0.6 1005862
5 march, fri
fri501:00−2ssw91692100 1.2 1004839
04:00−2ssw81493100 0.6 1003774
07:00−2sw71389100 1.4 1004685
10:00−9wsw71592100 0.1 1007445
13:00−8sw7128998 0.1 1010488
16:00−7sw9149397 0.3 1011814
19:00−6sw8149299 0.7 1012870
22:00−7sw61491100 0.1 1013614
6 march, sat
sat601:00−7ssw61492100 0.2 1013449
04:00−4sw71495100 0.4 1012665
07:00−3sw81595100 1.4 1010825
10:00−5sw101694100 1.1 1009884
13:00−3sw101594100 2.1 10071033
16:00−2sw111693100 0.7 10051104
19:00−1sw112089100 0.9 10041345
22:00−2w9158798 0.3 10071044
7 march, sun
sun701:00−6w6138899 0.4 1011596
04:00−11sw499568 0.0 1013174
07:00−13sw369582 0.0 101491
10:00−10ssw3793100 0.0 1014225
13:00−6sse61195100 0.4 1011490
16:00−2ssw91495100 0.8 1008807
19:000ssw91595100 1.3 1006941
22:000sw91594100 0.5 1005941